Regional Weather Roundup
Issued by NWS Wakefield, VA

Home | Current Version | Previous Version | Graphics & Text | Print | Product List | Glossary On
Versions: 1 2 3 4 5 6 7 8 9 10 11 12 13 14 15 16 17 18 19 20 21 22 23 24 25 26 27 28
000
ASUS41 KAKQ 261815
RWRAKQ

REGIONAL WEATHER ROUNDUP
NATIONAL WEATHER SERVICE WAKEFIELD VA
200 PM EDT FRI AUG 26 2016

Note: "fair" indicates few or no clouds below 12,000 feet with no
significant weather and/or obstructions to visibility. * = Denotes
station may not report precipitation (e.g., rain,snow,etc.),
thunder or fog.

VAZ042-051-052>054-056-261900-
NORTHERN VIRGINIA

CITY           SKY/WX    TMP DP  RH WIND       PRES   REMARKS
WASH NATIONAL  PTSUNNY   94  70  45 NW13G21   30.06S HX 100
DULLES         PTSUNNY   93  69  45 NW12      30.07S HX  98
FORT BELVOIR   MOSUNNY   93  71  48 NW10      30.05S HX  99
QUANTICO       MOSUNNY   94  72  48 NW8       30.06S HX 102
FREDERICKSBRG*   N/A     94  73  50 NW6       30.05S HX 102
STAFFORD*      MOSUNNY   93  70  46 W7        30.10F HX  99
WARRENTON      MOSUNNY   94  67  41 CALM      30.07S HX  97
CULPEPER*      SUNNY     93  74  54 W6        30.07F HX 102
MANASSAS*      PTSUNNY   93  72  49 NW8       30.06F HX 100
LEESBURG*      PTSUNNY   91  73  55 N5        30.08F HX 100
WINCHESTER     PTSUNNY   91  70  49 NW6       30.08F HX  97
FRONT ROYAL*   MOCLDY    90  72  55 CALM      30.08S HX  96
LURAY*         FAIR      91  70  49 SW3       30.10F HX  97
$$

VAZ048-049-060>072-079>083-261900-
CENTRAL AND SOUTH CENTRAL VIRGINIA

CITY           SKY/WX    TMP DP  RH WIND       PRES   REMARKS
RICHMOND       PTSUNNY   96  71  44 VRB6      30.06F HX 103
CHESTERFIELD*  FAIR      97  64  34 CALM      30.07F HX  99
PETERSBURG*    SUNNY     97  67  37 NE7       30.07F HX 101
HANOVER        SUNNY     93  71  48 CALM      30.08F HX 100
TAPPAHANNOCK*  SUNNY     94  68  42 N3        30.07S HX  99
QUINTON*       FAIR      93  75  55 CALM      30.06S HX 103
CHARLOTTSVILLE MOSUNNY   94  71  47 VRB3      30.09F HX 101
GORDONSVILLE*  FAIR      91  72  52 CALM      30.08  HX  98
ORANGE*          N/A     93  70  46 CALM      30.09F HX  99
LOUISA*        SUNNY     97  75  49 CALM      30.07F HX 109
BUMPASS*       FAIR      91  75  60 CALM      30.08S HX 102
FARMVILLE*     NOT AVBL
CREWE*         FAIR      92  72  51 CALM      30.08F HX 100
FORT PICKETT*  FAIR      92  70  47 NE7       30.08F HX  98
CHASE CITY*    FAIR      94  67  41 SE3       30.08F HX  98
CLARKSVILLE*   FAIR      95  72  46 E6        30.07F HX 103
SOUTH HILL*    MOSUNNY   93  73  52 CALM      30.13S HX 102
LAWRENCEVILLE* FAIR      93  72  51 NE3       30.07S HX 101
EMPORIA*       SUNNY     93  72  49 NE7       30.08S HX 100
$$

VAZ088>098-261900-
SOUTHEAST VIRGINIA

CITY           SKY/WX    TMP DP  RH WIND       PRES   REMARKS
NORFOLK        SUNNY     91  74  57 N7        30.06S HX 100
VIRGINIA BEACH PTSUNNY   97  75  49 NE6       30.05S HX 109
NORFOLK NAVAL  MOSUNNY   94  72  48 N7        30.07S HX 102
WEST POINT*    SUNNY     95  67  39 N5        30.06F HX  99
SALUDA*        FAIR      91  78  65 CALM      30.05S HX 105
NEWPORT NEWS   SUNNY     95  73  48 VRB6      30.05F HX 104
LANGLEY AFB    MOSUNNY   92  75  57 NE7       30.05F HX 102
FORT EUSTIS    MOSUNNY   93  78  61 S5        30.03F HX 108
WILLIAMSBURG*  SUNNY     97  73  46 CALM      30.06S HX 107
HR EXEC AP*    FAIR      93  75  55 N5        30.07F HX 104
FRANKLIN*      MOSUNNY   91  73  54 E3        30.06F HX  99
US460-WAKEFLD  MOSUNNY   92  72  51 CALM      30.06S HX  99
$$

VAZ020-022-025-037-045-261900-
WEST CENTRAL AND SOUTHWEST VIRGINIA

CITY           SKY/WX    TMP DP  RH WIND       PRES   REMARKS
STAUNTON*      MOSUNNY   89  70  54 E5        30.14F
WAYNESBORO*    FAIR      90  68  49 E3        30.15S
HOT SPRINGS VA PTSUNNY   79  67  66 NW3       30.30S
LYNCHBURG      PTSUNNY   89  69  51 CALM      30.13F
DANVILLE       SUNNY     92  72  51 VRB7      30.10F HX  99
SOUTH BOSTON*  MOCLDY    96  69  41 S7        30.08F HX 101
MARTINSVILLE   MOSUNNY   91  70  50 NE5       30.16S HX  97
ROANOKE        MOSUNNY   91  69  48 CALM      30.16F HX  96
BLACKSBURG     PTSUNNY   86  67  54 NE7       30.24S
DUBLIN*        MOSUNNY   86  66  51 N7        30.23F
MARION*        PTSUNNY   88  68  52 CALM      30.26F
HILLSVILLE*    MOSUNNY   83  69  62 N3        30.25R
RICHLANDS*     MOCLDY    83  69  62 NW3       30.26S
WISE*          MOSUNNY   84  59  42 N5        30.27F
ABINGDON*      PTSUNNY   87  68  52 CALM      30.22F
$$

MDZ021>025-VAZ099-100-261900-
SOUTHERN MARYLAND AND THE DELMARVA PENINSULA

CITY           SKY/WX    TMP DP  RH WIND       PRES   REMARKS
PATUXENT RIVER PTSUNNY   94  71  47 NW6       30.04S HX 101
BAY BRIDGE APT MOSUNNY   90  73  58 N7        30.04F HX  98
LEONARDTOWN    SUNNY     91  70  49 NW6       30.06S HX  97
DOVER          MOSUNNY   90  76  62 NW15      30.01S HX 101
GEORGETOWN     MOSUNNY   94  70  45 VRB6      30.02F HX 100
EASTON         SUNNY     93  77  59 NW8       30.08S HX 107
CAMBRIDGE      SUNNY     90  72  55 NW7       30.04S HX  96
SALISBURY      SUNNY     93  74  53 W9        30.02S HX 103
OCEAN CITY     MOSUNNY   90  77  65 S9        30.02S HX 103
WALLOPS ISLAND PTSUNNY   92  68  45 W7        30.04F HX  96
ACCOMACK*      SUNNY     90  74  60 W5        30.05S HX  99
$$

NCZ012>017-030>032-261900-
NORTH CENTRAL AND EASTERN NORTH CAROLINA

CITY           SKY/WX    TMP DP  RH WIND       PRES   REMARKS
ROANOKE RAPIDS FAIR      91  73  55 SE3       30.07S HX 100
RALEIGH        MOSUNNY   96  67  38 VRB5      30.08F HX 100
ELIZABETH CITY SUNNY     91  73  55 SW8       30.07F HX  99
AHOSKIE*       SUNNY     89  74  60 E5        30.06F HX  99
EDENTON*       SUNNY     91  71  51 S6        30.08F HX  97
CURRITUCK*       N/A     91  72  53 SW5       30.07F HX  98
KILL DEVIL HLS SUNNY     95  77  56 S5        30.07F HX 109
MANTEO         SUNNY     86  73  65 S12       30.08F
CAPE HATTERAS  SUNNY     86  71  60 S5        30.10F
TARBORO*       FAIR      94  75  54 CALM      30.07F HX 106
GOLDSBORO      MOSUNNY   94  73  50 VRB3      30.06F HX 102
WASHINGTON     SUNNY     89  73  59 SE3       30.08S HX  97
GREENVILLE     SUNNY     93  73  52 S3        30.09S HX 102
NEW BERN       MOSUNNY   89  73  59 SE7       30.10F HX  97
WILMINGTON     SUNNY     88  72  58 SE6       30.09F
$$

VAZ048-261900-
ELSEWHERE

CITY           SKY/WX    TMP DP  RH WIND       PRES   REMARKS
HARRISBURG PA  PTSUNNY   90  69  50 NW16G22   30.05S
BALTIMORE      PTSUNNY   91  69  48 NW8G23    30.05S HX  96
ANNAPOLIS      SUNNY     91  71  51 NW8       30.04S HX  97
ANDREWS AFB    MOSUNNY   92  69  47 W17       30.05F HX  97
PHILADELPHIA   MOSUNNY   91  67  44 NW14      30.01S
HENDERSON NC   SUNNY     90  70  52 CALM      30.09S HX  95
GREENSBORO     PTSUNNY   93  70  46 NE8       30.12F HX  99
ROCKY MOUNT    SUNNY     93  74  53 VRB3      30.07F HX 103
$$

VAZ100-261900-
MARINE

STATION/POSITION TIME  TEMP    WIND        PRES    WAVE   SWELL
                       AIR SEA DIR/SP/G            HT/PER HT/PER
                 (UTC) (F)     (DEG/KT/KT) (MB)    (FT/S) (FT/S)
BRANDYWINE LGT   1700   83     350/ 10/ 10   N/A
CAPE MAY NJ      1700   85 76  320/  7/ 10 1016.2F
LEWES DE         1700   82 74   20/  7/  8 1016.5F
OCEAN-CITY-INLET 1700   78 76  200/  9/ 12 1017.0F
WACHAPREAGUE VA  1700   92 82   CALM  /  1 1017.4F
THOMAS POINT MD  1800   87 83  360/  5/  6 1018.7S
GOOSES REEF MD   1700   87 85   60/  2/  4 1017.9F   0
COVE POINT MD    1700   87      50/  5/  5 1017.9F
SOLOMONS ISLAND  1700   90 83  340/  6/  7   N/A
PINEY POINT MD   1700          320/ 10/ 11   N/A
POTOMAC MD       1700   85 85  230/  4/  6 1016.6F   1
CAMBRIDGE MD     1700   88 83  280/  8/ 12 1016.5F
LEWISETTA VA     1700   88 82  110/  4/  5 1017.2F
RAPPAHANNOCK LGT 1700          200/  3/  4 1018.4F
STINGRAY PT      1700   86 85   90/  2/  2 1018.3F   1
YORK RVR RNG VA  1700   83     140/  7/  8 1017.5F
YORKTOWN VA      1700   88 83  100/  2/  2 1017.4F
JAMESTOWN VA     1700   87 86   CALM  /  4   N/A     0
DOMINION TERM VA 1700   84     190/  3/  4 1018.1F
KIPTOPEKE VA     1700      80  240/  5/  6   N/A
CHES BAY BRIDGE  1706   84 81  290/  4/  4 1018.0F
CAPE HENRY VA    1700   83      20/  3/  4   N/A
WILLOUBY STN VA  1700   85     230/  3/  4   N/A
CAPE HENRY BUOY  1712      79                N/A     2/ 8
1ST LANDING BUOY 1700   83 80  360/  2/  4 1017.8F   1/ 4
CAPE CHARLES BUO 1726      79                N/A     2/ 8
OFFSHORE WE BUOY 1721      80                N/A     2/ 8
64NM E OF VA BCH 1750   80 81  210/ 12/ 14 1018.3F   3/ 8   2/ 8
DUCK PIER NC     1700   83 78  230/  9/ 11 1018.1F
44100 DUCK FRF   1705      79                N/A     2/ 8
44056 DUCK FRF   1711      79                N/A     2/ 8
OREGON INLET NC  1700   83 80  170/  9/ 12 1018.9F
HATTERAS NC      1700   84 81  200/  3/  5 1019.1F
DIAMOND SHLS NC  1750   82 86   90/  2/  4 1019.4F   2/ 8   2/ 8
CAPE LOOKOUT NC  1800   83     150/  4/  6 1019.0F
$$




USA.gov is the U.S. government's official web portal to all federal, state and local government web resources and services.